Regional Weather Roundup
Issued by NWS

Home | Current Version | Previous Version | Graphics & Text | Print | Product List | Glossary On
Versions: 1 2 3 4 5 6 7 8 9 10 11 12 13 14 15 16 17 18 19 20 21 22 23 24 25 26 27 28 29 30 31 32 33 34 35 36 37 38 39 40 41 42 43 44 45 46 47 48 49 50
000
ASUS44 KMEG 241500
RWRTN
TENNESSEE HOURLY STATE WEATHER ROUNDUP
NATIONAL WEATHER SERVICE MEMPHIS TN
1000 AM CDT FRI MAR 24 2017

TNZ002-004-019-021-049-052-054-088>092-241600-
WEST TENNESSEE

CITY           SKY/WX    TMP DP  RH WIND       PRES   REMARKS
MEMPHIS INTL   CLOUDY    71  61  70 S14G21    30.18R
NWS MEMPHIS      N/A     69 N/A N/A MISG        N/A
JACKSON        CLOUDY    68  58  70 S17G24    30.21R
DYERSBURG      CLOUDY    67  59  75 S8        30.19R
PARIS          MOSUNNY   66  55  68 S15       30.20S
$$

TNZ008-025-027-028-033-062-065-066-241600-
NORTH MIDDLE TENNESSEE

CITY           SKY/WX    TMP DP  RH WIND       PRES   REMARKS
NASHVILLE      PTSUNNY   68  52  56 S18G29    30.28R
CLARKSVILLE    SUNNY     68  53  58 S20G25    30.23R
SMYRNA         MOSUNNY   68  53  58 S20G26    30.28S
CROSSVILLE     SUNNY     59  44  57 S13G24    30.37R
$$

TNZ061-075-076-078-094-096-097-241600-
SOUTH MIDDLE TENNESSEE

CITY           SKY/WX    TMP DP  RH WIND       PRES   REMARKS
TULLAHOMA      CLOUDY    63  46  55 S17       30.32S
WINCHESTER     MOSUNNY   64  50  59 S21       30.33R
MCMINNVILLE    CLOUDY    64  48  55 S10       30.32S
COLUMBIA       PTSUNNY   64  55  72 S16       30.26R
SHELBYVILLE    PTSUNNY   66  54  63 S16       30.30S
$$

TNZ017-018-042-046-047-241600-
NORTHEAST TENNESSEE

CITY           SKY/WX    TMP DP  RH WIND       PRES   REMARKS
TRI CITIES     CLOUDY    60  37  42 SE5       30.39S
$$

TNZ012-013-036-069-073-074-241600-
CENTRAL EAST TENNESSEE

CITY           SKY/WX    TMP DP  RH WIND       PRES   REMARKS
KNOXVILLE      PTSUNNY   64  43  46 SW13      30.36F
OAK RIDGE      CLOUDY    63  42  46 SW9G18    30.39S
GATLINBURG     MOSUNNY   54  39  58 CALM      30.38S
$$

TNZ083-085-099-241600-
SOUTHEAST TENNESSEE

CITY           SKY/WX    TMP DP  RH WIND       PRES   REMARKS
CHATTANOOGA    PTSUNNY   59  43  55 S14G25    30.40S
$$

SKY/WX REPORTED AS FAIR MEANS FEW OR NO CLOUDS BELOW
12 THOUSAND FEET.





USA.gov is the U.S. government's official web portal to all federal, state and local government web resources and services.